Weather History for Soldotna, AK

Change the Weather History Date:

Sunday, October 14, 2012

  Actual Average Record
Temperature  
Mean Temperature 37 °F -  
Max Temperature 41 °F 42 °F 56 °F (1969)
Min Temperature 33 °F 29 °F 12 °F (1959)
Degree Days  
Heating Degree Days 28    
Moisture  
Dew Point 29 °F    
Average Humidity 78    
Maximum Humidity 93    
Minimum Humidity 61    
Precipitation  
Precipitation 0.00 in - - ()
Sea Level Pressure  
Sea Level Pressure 29.02 in    
Wind  
Wind Speed 9 mph (ENE)    
Max Wind Speed 12 mph    
Max Gust Speed 17 mph    
Visibility 10 miles    
Events      
Averages and records for this station are not official NWS values.
T = Trace of Precipitation, MM = Missing Value Source: NWS Daily Summary

Daily Weather History Graph

Daily Weather History Graph

Search for Another Location

Airport:

Trip Planner

Search our weather history database for the weather conditions in past years. The results will help you decide how hot, cold, wet, or windy it might be!

Date:

Astronomy

Oct. 14, 2012 Rise Set
Actual Time 8:43 AM AKDT 6:54 PM AKDT
Civil Twilight 8:01 AM AKDT 7:37 PM AKDT
Nautical Twilight 7:12 AM AKDT 8:26 PM AKDT
Astronomical Twilight 6:22 AM AKDT 9:15 PM AKDT
Moon 7:55 AM AKDT (10/14) 6:13 PM AKDT (10/14)
Length of Visible Light 11h 36m
Length of Day
10h 10m
Waning Crescent, 1% of the Moon is Illuminated
Oct 14
Waning Crescent
Oct 15
New
Oct 21
First Quarter
Oct 29
Full
Nov 6
Last Quarter

Hourly Weather History & Observations

Time (AKDT) Temp. Windchill Dew Point Humidity Pressure Visibility Wind Dir Wind Speed Gust Speed Precip Events Conditions
12:16 AM 33.8 °F 26.4 °F 28.4 °F 81% 29.17 in 10.0 mi ENE 9.2 mph - N/A   Overcast
12:36 AM 33.8 °F 25.8 °F 28.4 °F 81% 29.17 in 10.0 mi NE 10.4 mph - N/A   Overcast
12:56 AM 33.8 °F 26.4 °F 28.4 °F 81% 29.16 in 10.0 mi NE 9.2 mph - N/A   Overcast
1:16 AM 33.8 °F 25.8 °F 28.4 °F 81% 29.16 in 10.0 mi NE 10.4 mph - N/A   Overcast
1:36 AM 33.8 °F 25.3 °F 28.4 °F 81% 29.16 in 10.0 mi NE 11.5 mph 17.3 mph N/A   Overcast
1:56 AM 33.8 °F 26.4 °F 28.4 °F 81% 29.15 in 10.0 mi NE 9.2 mph - N/A   Overcast
2:16 AM 33.8 °F 27.0 °F 28.4 °F 81% 29.15 in 10.0 mi ENE 8.1 mph - N/A   Overcast
2:36 AM 33.8 °F 26.4 °F 28.4 °F 81% 29.14 in 10.0 mi ENE 9.2 mph - N/A   Overcast
2:56 AM 33.8 °F 25.3 °F 28.4 °F 81% 29.13 in 10.0 mi NE 11.5 mph 16.1 mph N/A   Overcast
3:16 AM 33.8 °F 27.7 °F 28.4 °F 81% 29.13 in 10.0 mi ENE 6.9 mph - N/A   Overcast
3:36 AM 33.8 °F 25.8 °F 28.4 °F 81% 29.12 in 10.0 mi NE 10.4 mph 17.3 mph N/A   Overcast
3:56 AM 33.8 °F 27.0 °F 28.4 °F 81% 29.12 in 10.0 mi NE 8.1 mph - N/A   Overcast
4:16 AM 33.8 °F 27.0 °F 28.4 °F 81% 29.11 in 10.0 mi ENE 8.1 mph - N/A   Overcast
4:36 AM 33.8 °F 25.8 °F 28.4 °F 81% 29.11 in 10.0 mi ENE 10.4 mph - N/A   Overcast
4:56 AM 33.8 °F 26.4 °F 28.4 °F 81% 29.10 in 10.0 mi ENE 9.2 mph - N/A   Overcast
5:16 AM 33.8 °F 26.4 °F 28.4 °F 81% 29.10 in 10.0 mi ENE 9.2 mph - N/A   Overcast
5:36 AM 33.8 °F 27.0 °F 28.4 °F 81% 29.09 in 10.0 mi ENE 8.1 mph - N/A   Overcast
5:56 AM 33.8 °F 27.0 °F 28.4 °F 81% 29.09 in 10.0 mi ENE 8.1 mph - N/A   Overcast
6:16 AM 33.8 °F 25.8 °F 28.4 °F 81% 29.08 in 10.0 mi ENE 10.4 mph - N/A   Overcast
6:36 AM 33.8 °F 27.0 °F 28.4 °F 81% 29.08 in 10.0 mi ENE 8.1 mph - N/A   Overcast
6:56 AM 33.8 °F 26.4 °F 28.4 °F 81% 29.07 in 10.0 mi ENE 9.2 mph - N/A   Overcast
7:16 AM 33.8 °F 26.4 °F 28.4 °F 81% 29.07 in 10.0 mi ENE 9.2 mph - N/A   Overcast
7:36 AM 33.8 °F 27.7 °F 28.4 °F 81% 29.07 in 10.0 mi ENE 6.9 mph - N/A   Overcast
7:56 AM 33.8 °F 25.8 °F 28.4 °F 81% 29.06 in 10.0 mi ENE 10.4 mph - N/A   Overcast
8:16 AM 33.8 °F 27.7 °F 28.4 °F 81% 29.06 in 10.0 mi ENE 6.9 mph - N/A   Overcast
8:36 AM 33.8 °F 26.4 °F 28.4 °F 81% 29.06 in 10.0 mi ENE 9.2 mph - N/A   Overcast
8:56 AM 33.8 °F 27.7 °F 28.4 °F 81% 29.06 in 10.0 mi ENE 6.9 mph - N/A   Overcast
9:16 AM 33.8 °F 28.6 °F 28.4 °F 81% 29.05 in 10.0 mi ENE 5.8 mph - N/A   Overcast
9:36 AM 33.8 °F 27.7 °F 28.4 °F 81% 29.05 in 10.0 mi NE 6.9 mph - N/A   Overcast
9:56 AM 33.8 °F 26.4 °F 28.4 °F 81% 29.05 in 10.0 mi ENE 9.2 mph - N/A   Overcast
10:16 AM 33.8 °F 27.0 °F 28.4 °F 81% 29.04 in 10.0 mi ENE 8.1 mph - N/A   Overcast
10:36 AM 33.8 °F 27.7 °F 28.4 °F 81% 29.04 in 10.0 mi ENE 6.9 mph - N/A   Overcast
10:56 AM 35.6 °F 29.9 °F 28.4 °F 75% 29.03 in 10.0 mi NE 6.9 mph - N/A   Overcast
11:16 AM 35.6 °F 28.0 °F 28.4 °F 75% 29.03 in 10.0 mi ENE 10.4 mph - N/A   Overcast
11:36 AM 35.6 °F 29.9 °F 28.4 °F 75% 29.03 in 10.0 mi ENE 6.9 mph - N/A   Overcast
11:56 AM 37.4 °F 32.1 °F 28.4 °F 70% 29.02 in 10.0 mi NE 6.9 mph - N/A   Overcast
12:16 PM 37.4 °F 30.8 °F 28.4 °F 70% 29.02 in 10.0 mi ENE 9.2 mph - N/A   Overcast
12:36 PM 37.4 °F 30.3 °F 28.4 °F 70% 29.02 in 10.0 mi NE 10.4 mph - N/A   Mostly Cloudy
12:56 PM 37.4 °F 30.8 °F 28.4 °F 70% 29.01 in 10.0 mi NE 9.2 mph - N/A   Mostly Cloudy
1:16 PM 39.2 °F 32.0 °F 28.4 °F 65% 29.01 in 10.0 mi ENE 11.5 mph - N/A   Mostly Cloudy
1:36 PM 39.2 °F 33.0 °F 30.2 °F 70% 29.00 in 10.0 mi NE 9.2 mph - N/A   Mostly Cloudy
1:56 PM 39.2 °F 33.6 °F 30.2 °F 70% 29.00 in 10.0 mi NE 8.1 mph - N/A   Overcast
2:16 PM 39.2 °F 34.2 °F 30.2 °F 70% 28.99 in 10.0 mi NE 6.9 mph - N/A   Mostly Cloudy
2:36 PM 39.2 °F 32.5 °F 30.2 °F 70% 28.98 in 10.0 mi NE 10.4 mph - N/A   Partly Cloudy
2:56 PM 39.2 °F 33.6 °F 30.2 °F 70% 28.98 in 10.0 mi NE 8.1 mph - N/A   Partly Cloudy
3:16 PM 41.0 °F 35.8 °F 30.2 °F 65% 28.97 in 10.0 mi NE 8.1 mph - N/A   Partly Cloudy
3:36 PM 41.0 °F 34.3 °F 30.2 °F 65% 28.97 in 10.0 mi ENE 11.5 mph - N/A   Partly Cloudy
3:56 PM 41.0 °F 35.8 °F 30.2 °F 65% 28.96 in 10.0 mi NE 8.1 mph - N/A   Clear
4:16 PM 41.0 °F 35.2 °F 30.2 °F 65% 28.95 in 10.0 mi NE 9.2 mph - N/A   Clear
4:36 PM 41.0 °F 34.7 °F 28.4 °F 61% 28.95 in 10.0 mi NE 10.4 mph 16.1 mph N/A   Clear
4:56 PM 39.2 °F 32.0 °F 28.4 °F 65% 28.94 in 10.0 mi ENE 11.5 mph - N/A   Clear
5:16 PM 39.2 °F 32.5 °F 28.4 °F 65% 28.94 in 10.0 mi ENE 10.4 mph - N/A   Clear
5:36 PM 39.2 °F 33.6 °F 28.4 °F 65% 28.94 in 10.0 mi ENE 8.1 mph - N/A   Partly Cloudy
5:56 PM 39.2 °F 33.0 °F 30.2 °F 70% 28.93 in 10.0 mi ENE 9.2 mph - N/A   Mostly Cloudy
6:16 PM 39.2 °F 33.6 °F 28.4 °F 65% 28.93 in 10.0 mi ENE 8.1 mph - N/A   Scattered Clouds
6:36 PM 39.2 °F 35.9 °F 28.4 °F 65% 28.92 in 10.0 mi East 4.6 mph - N/A   Partly Cloudy
6:56 PM 37.4 °F 34.9 °F 28.4 °F 70% 28.92 in 10.0 mi East 3.5 mph - N/A   Mostly Cloudy
7:16 PM 37.4 °F 34.9 °F 28.4 °F 70% 28.91 in 10.0 mi East 3.5 mph - N/A   Overcast
7:36 PM 37.4 °F 34.9 °F 28.4 °F 70% 28.91 in 10.0 mi East 3.5 mph - N/A   Overcast
7:56 PM 37.4 °F 32.8 °F 30.2 °F 75% 28.91 in 10.0 mi ESE 5.8 mph - N/A   Overcast
8:16 PM 35.6 °F 32.8 °F 30.2 °F 81% 28.91 in 10.0 mi ESE 3.5 mph - N/A   Overcast
8:36 PM 35.6 °F 32.8 °F 32.0 °F 87% 28.91 in 8.0 mi SE 3.5 mph - N/A   Overcast
8:56 PM 35.6 °F - 32.0 °F 87% 28.90 in 7.0 mi Calm Calm - N/A   Mostly Cloudy
9:16 PM 35.6 °F 32.8 °F 32.0 °F 87% 28.90 in - ESE 3.5 mph - N/A   Unknown
9:36 PM 35.6 °F 31.7 °F 33.8 °F 93% 28.89 in 10.0 mi ESE 4.6 mph - N/A   Overcast
9:56 PM 35.6 °F 30.7 °F 32.0 °F 87% 28.89 in 10.0 mi ESE 5.8 mph - N/A   Overcast
10:16 PM 35.6 °F 29.9 °F 33.8 °F 93% 28.89 in 10.0 mi ESE 6.9 mph - N/A   Overcast
10:36 PM 35.6 °F 29.9 °F 33.8 °F 93% 28.89 in 10.0 mi East 6.9 mph - N/A   Overcast
10:56 PM 35.6 °F 30.7 °F 33.8 °F 93% 28.90 in 10.0 mi ESE 5.8 mph - N/A   Overcast
11:16 PM 35.6 °F 31.7 °F 33.8 °F 93% 28.90 in 10.0 mi East 4.6 mph - N/A   Mostly Cloudy
11:36 PM 35.6 °F 31.7 °F 33.8 °F 93% 28.90 in 9.0 mi East 4.6 mph - N/A   Mostly Cloudy
11:56 PM 35.6 °F 31.7 °F 33.8 °F 93% 28.90 in 10.0 mi East 4.6 mph - N/A   Mostly Cloudy